Regional Weather Roundup
Issued by NWS

Home | Current Version | Previous Version | Graphics & Text | Print | Product List | Glossary On
Versions: 1 2 3 4 5 6 7 8 9 10 11 12 13 14 15 16 17 18 19 20 21 22 23 24 25 26 27 28
000
ASUS45 KSLC 241410
RWRUT

UTAH REGIONAL WEATHER ROUNDUP
NATIONAL WEATHER SERVICE SALT LAKE CITY UT
800 AM MDT THU APR 24 2014

UTZ001>011-023>025-241500-

NORTHERN UTAH

CITY           SKY/WX    TMP DP  RH WIND       PRES   REMARKS
DUGWAY         PTSUNNY   38  16  41 E6        30.06  WCI  34
HILL AFB       MOSUNNY   39  21  48 E16       30.05S WCI  30
LOGAN          SUNNY     32  28  85 CALM      30.06R
OGDEN          MOSUNNY   40  22  48 SE8       30.05R WCI  34
PROVO AIRPORT  PTSUNNY   37  21  52 CALM      30.11R
SALT LAKE CITY PTSUNNY   44  25  47 S14       30.05S
VERNAL         PTSUNNY   36  14  40 N3        30.15R
WENDOVER       PTSUNNY   43  19  39 NE7       30.04R
HEBER CITY     PTSUNNY   28  21  74 CALM      30.12S
WEST JORDAN    SUNNY     43  27  52 S15       30.07S

$$

UTZ012>022-026-027-241500-

SOUTHERN UTAH

CITY           SKY/WX    TMP DP  RH WIND       PRES   REMARKS
BRYCE CANYON   MOSUNNY   28  14  55 W3        30.17R
CEDAR CITY     PTSUNNY   35  12  38 CALM      30.08R
MILFORD        PTSUNNY   37  13  37 S13       30.07R WCI  29
MOAB/CYNLANDS  SUNNY     38  10  31 CALM      30.12R
PRICE          PTSUNNY   36  12  37 CALM      30.12R
ST GEORGE      PTSUNNY   52  14  22 E5        30.07R
KANAB            N/A     39  14  35 NW16      30.14R WCI  30

$$

REGIONAL REPORTS     COLORADO/ARIZONA

CITY           SKY/WX    TMP DP  RH WIND       PRES   REMARKS
CRAIG, CO      SUNNY     26  21  81 CALM      30.15R
GRAND JUNCTION MOSUNNY   38  14  37 S6        30.16R WCI  33
RIFLE          SUNNY     33  16  49 CALM      30.18R
MONTROSE       MOSUNNY   38  15  39 SE10      30.19R WCI  31
CORTEZ         SUNNY     33  13  43 CALM      30.15R
PAGE, AZ       PTSUNNY   50  13  22 CALM      30.11R
GRAND CANYON   MOSUNNY   31  12  45 CALM      30.15R
KINGMAN        MOSUNNY   53  10  18 E7        30.01R
FLAGSTAFF      MOSUNNY   31  13  47 CALM      30.16R

$$

REGIONAL REPORTS    NEVADA/IDAHO/WYOMING

CITY           SKY/WX    TMP DP  RH WIND       PRES   REMARKS
LAS VEGAS, NV  MOSUNNY   59  18  20 S7        29.93R
ELY            MOSUNNY   32  16  51 S10       30.08R WCI  24
ELKO           PTSUNNY   37  27  67 CALM      30.02S
POCATELLO, ID  PTSUNNY   47  23  38 S22       29.98S
BURLEY         CLOUDY    46  26  45 SW16G24   29.97R
EVANSTON, WY   MOSUNNY   32  17  54 SW10      30.08R WCI  24
ROCK SPRINGS   SUNNY     33  14  45 W7        30.09R WCI  27

$$



USA.gov is the U.S. government's official web portal to all federal, state and local government web resources and services.